TimeCST,TemperatureF,Dew PointF,Humidity,Sea Level PressureIn,VisibilityMPH,Wind Direction,Wind SpeedMPH,Gust SpeedMPH,PrecipitationIn,Events,Conditions,WindDirDegrees,DateUTC
12:56 AM,57.0,50.0,77,29.63,10.0,Variable,6.9,-,N/A,,Mostly Cloudy,0,2012-12-26 06:56:00
1:56 AM,55.9,50.0,80,29.64,10.0,WSW,8.1,-,N/A,,Partly Cloudy,240,2012-12-26 07:56:00
2:56 AM,55.0,46.9,74,29.66,10.0,West,8.1,-,N/A,,Clear,260,2012-12-26 08:56:00
3:56 AM,53.1,45.0,74,29.67,10.0,WSW,10.4,16.1,N/A,,Partly Cloudy,250,2012-12-26 09:56:00
4:52 AM,51.8,42.8,71,29.74,10.0,West,8.1,-,N/A,,Overcast,260,2012-12-26 10:52:00
4:56 AM,52.0,42.1,69,29.70,10.0,West,8.1,-,N/A,,Overcast,280,2012-12-26 10:56:00
5:52 AM,46.4,37.4,71,29.79,10.0,WNW,11.5,18.4,N/A,,Scattered Clouds,300,2012-12-26 11:52:00
5:56 AM,46.0,37.0,71,29.76,10.0,WNW,8.1,18.4,N/A,,Scattered Clouds,300,2012-12-26 11:56:00
6:56 AM,42.1,30.9,65,29.81,10.0,NW,18.4,26.5,N/A,,Clear,310,2012-12-26 12:56:00
7:56 AM,41.0,30.0,65,29.85,10.0,NW,11.5,26.5,N/A,,Partly Cloudy,310,2012-12-26 13:56:00
8:09 AM,41.0,30.2,65,29.89,10.0,NW,10.4,26.5,N/A,,Mostly Cloudy,310,2012-12-26 14:09:00
8:56 AM,42.1,30.9,65,29.89,10.0,NW,12.7,26.5,N/A,,Overcast,310,2012-12-26 14:56:00
9:56 AM,43.0,30.9,62,29.93,10.0,WNW,12.7,21.9,N/A,,Overcast,300,2012-12-26 15:56:00
10:56 AM,45.0,30.9,58,29.93,10.0,NW,13.8,23.0,N/A,,Overcast,310,2012-12-26 16:56:00
11:24 AM,44.6,30.2,57,29.95,10.0,NW,12.7,26.5,N/A,,Scattered Clouds,310,2012-12-26 17:24:00
11:56 AM,46.9,32.0,56,29.91,10.0,NNW,17.3,28.8,N/A,,Mostly Cloudy,330,2012-12-26 17:56:00
12:56 PM,48.0,30.9,52,29.91,10.0,NW,10.4,26.5,N/A,,Clear,320,2012-12-26 18:56:00
1:56 PM,48.9,33.1,54,29.92,10.0,NNW,18.4,23.0,N/A,,Clear,330,2012-12-26 19:56:00
2:56 PM,48.9,33.1,54,29.94,10.0,NNW,15.0,-,N/A,,Clear,340,2012-12-26 20:56:00
3:56 PM,46.9,32.0,56,29.96,10.0,NNW,13.8,20.7,N/A,,Clear,330,2012-12-26 21:56:00
4:56 PM,44.1,32.0,63,29.98,10.0,NW,6.9,-,N/A,,Clear,320,2012-12-26 22:56:00
5:56 PM,41.0,33.1,73,30.01,10.0,NNW,8.1,-,N/A,,Clear,340,2012-12-26 23:56:00
6:56 PM,41.0,32.0,70,30.04,10.0,NW,6.9,-,N/A,,Clear,320,2012-12-27 00:56:00
7:56 PM,39.0,32.0,76,30.06,10.0,NNW,9.2,-,N/A,,Clear,330,2012-12-27 01:56:00
8:56 PM,37.9,30.9,76,30.09,10.0,NNW,5.8,-,N/A,,Clear,330,2012-12-27 02:56:00
9:56 PM,37.0,30.9,79,30.10,10.0,NNW,9.2,-,N/A,,Clear,340,2012-12-27 03:56:00
10:35 PM,37.4,30.2,75,30.13,10.0,NNW,5.8,-,N/A,,Mostly Cloudy,330,2012-12-27 04:35:00
10:56 PM,37.0,30.9,79,30.09,10.0,NNW,5.8,-,N/A,,Overcast,340,2012-12-27 04:56:00
11:56 PM,37.9,30.9,76,30.09,10.0,NNW,8.1,-,N/A,,Overcast,330,2012-12-27 05:56:00